Hourly Data Report for October 07, 2015

All times are specified in Local Standard Time (LST). Add 1 hour to adjust for Daylight Saving Time where and when it is observed.

PENTICTON A
BRITISH COLUMBIA

49°27'45.000" N
119°36'08.000" W
344.40 m
1126146
71889
YYF

Download Data

Hourly Data (October 2015)
Hourly Data Report for October 7, 2015
Temp Definition
°C
Dew Point Temp Definition
°C
Rel Hum Definition
%
Wind Dir Definition
10's deg

Wind Spd Definition
km/h
Visibility Definition
km
Stn Press Definition
kPa
Hmdx Definition


Wind Chill Definition


Weather Definition


TIME
00:00 Legend Double Dagger 9.1 5.3 77 36 3 24.1 97.62     LegendNANA
01:00
02:00 Legend Double Dagger 8.3 5.9 85 3 3 24.1 97.65     LegendNANA
03:00 Legend Double Dagger 9.5 5.7 77 24 3 24.1 97.65     LegendNANA
04:00 Legend Double Dagger 9.3 6.6 83 29 5 24.1 97.72     Rain Showers
05:00 Legend Double Dagger 9.7 8.2 90 19 3 24.1 97.78     Rain Showers
06:00 Legend Double Dagger 9.4 8.7 95 6 6 24.1 97.77     LegendNANA
07:00 Legend Double Dagger 10.1 9.0 93 36 3 24.1 97.78     Cloudy
08:00 Legend Double Dagger 12.0 10.3 89 36 2 24.1 97.84     Rain
09:00 Legend Double Dagger 13.1 9.8 80 17 12 24.1 97.85     LegendNANA
10:00 Legend Double Dagger 14.0 8.9 71 15 17 24.1 97.83     Cloudy
11:00 Legend Double Dagger 14.8 8.4 65 17 19 24.1 97.82     LegendNANA
12:00 Legend Double Dagger 14.7 8.9 68 17 22 24.1 97.86     Rain Showers
13:00 Legend Double Dagger 14.7 9.6 71 16 21 24.1 97.82     Cloudy
14:00 Legend Double Dagger 14.9 10.0 72 17 24 24.1 97.83     Rain
15:00 Legend Double Dagger 13.7 10.9 83 16 18 19.3 97.87     LegendNANA
16:00 Legend Double Dagger 13.6 11.2 85 17 16 24.1 97.88     Rain
17:00 Legend Double Dagger 13.4 11.1 86 18 18 24.1 97.92     Rain
18:00 Legend Double Dagger 13.5 11.2 86 16 14 24.1 97.94     LegendNANA
19:00 Legend Double Dagger 13.4 11.1 86 18 17 24.1 98.04     Cloudy
20:00 Legend Double Dagger 13.4 11.5 88 16 17 24.1 98.10     LegendNANA
21:00 Legend Double Dagger 13.5 11.4 87 15 15 24.1 98.11     Rain
22:00 Legend Double Dagger 13.5 11.4 87 17 8 24.1 98.15     Cloudy
23:00 Legend Double Dagger 13.4 12.0 91 15 10 24.1 98.16     Rain

Notes on Data Quality.

Legend

  • E = Estimated
  • M = Missing
  • NA = Not Available
  • ‡ = Partner data that is not subject to review by the National Climate Archives
Date modified: